Starlink 32864

operational
NORAD ID: 62862 Int'l Des: 2025-022 Owner: SPXS Country: US Constellation: starlink
LEOCIRCULAR

About Starlink 32864

Description loading...

Live Position

Loading 3D Globe...

Upcoming Passes

Altitude History

Altitude vs Time

uPlot chart will show altitude changes over time

Two-Line Element Set

1 62862U 25022J 25353.82622693 .00020907 00000-0 71595-3 0 9999
2 62862 53.1590 140.4916 0000367 47.3496 312.7535 15.30203200 49671
Epoch: Dec 19, 2025 • Age: 13 hours

Current Status

Altitude 475.6 km
Velocity 7.63 km/s
Sub-Earth Point 22.52°N, 60.55°W
Launch Date Feb 2, 2025
Age 0.8 years
Type internet

Technical Details

Classification Payload
Mass 730.00 kg
Dry Mass 700.00 kg
Total Mass 730.00 kg
Length 0.30 m
Diameter 4.10 m
Span 29.00 m
Shape Box + pan
Manufacturer SPXS
Bus Type Starlink V2M
Phase Status In Orbit
Owner/State SPXS/US

Large Constellations

Loading constellations...